Tracking 35275 objects as of 9-Sep-2026
HD Live streaming from Space Station
objects crossing your sky now

FARADAY_PHOENIX


FARADAY_PHOENIX is no longer on orbit


NORAD ID: 48924
Int'l Code: 2021-059AX
Launch date: June 30, 2021
Source: United Kingdom (UK)
Launch site: AIR FORCE EASTERN TEST RANGE (AFETR)
Decay date: 2026-08-18
Your satellite tracking list
Your tracking list is empty




NASA's NSSDC Master Catalog

Two Line Element Set (TLE):
1 48924U 21059AX  26230.23662953  .05800316  26793-5  56717-3 0  9997
2 48924  97.6371  76.5308 0011721 280.5759  79.4219 16.38155079287531
Source of the keplerian elements: AFSPC